Simultaneous Nadir Overpasses (SNOs) Predictions

Prediction of SNOs over PacNW region [( 10.00, 139.50) to ( 22.70, 165.60)] between AQUA and NPP Satellites:

Table of predicted SNOs over PacNW region for the next 30.0 days since TLE Epoch: 10/26/2018
Index Date (AQUA) Time (AQUA) AQUA Lat,Lon Date (NPP) Time (NPP) NPP Lat,Lon Distance(km) Time Diff (sec)
1 11/03/2018 15:09:54 22.59, 159.82 11/03/2018 15:11:26 23.19, 157.21 275.76 92
2 11/06/2018 03:31:43 22.66, 147.51 11/06/2018 03:28:14 24.61, 145.26 315.71 209
3 11/11/2018 15:59:16 22.63, 147.48 11/11/2018 16:02:07 23.26, 144.53 310.04 171
4 11/19/2018 15:09:46 22.61, 159.85 11/19/2018 15:11:21 23.20, 157.20 279.63 95
5 11/22/2018 03:31:33 22.66, 147.54 11/22/2018 03:28:04 24.39, 145.30 298.61 209




NCC Satellite Simultaneous Nadir Overpasses (SNOs) Prediction Service
